This is the latest recevied weather packets stored in our database for station/object NU3S-7. If no packets are shown the sender has not sent any weather packets the latest 10 day(s).
| Time | Temp. | Humidity | Pressure | Rain* | Wind** | Luminosity | Snow |
|---|---|---|---|---|---|---|---|
| 1777852456 | 13.33° C | 59% | 1013.5 hPa | 0 mm | - | - | - |
| 1777851848 | 13.89° C | 58% | 1013.6 hPa | 0 mm | - | - | - |
| 1777851248 | 13.89° C | 57% | 1013.7 hPa | 0 mm | - | - | - |
| 1777849442 | 14.44° C | 56% | 1013.7 hPa | 0 mm | - | - | - |
| 1777848867 | 14.44° C | 56% | 1013.7 hPa | 0 mm | - | - | - |
| 1777848258 | 13.89° C | 56% | 1013.8 hPa | 0 mm | - | - | - |
| 1777847704 | 14.44° C | 56% | 1014 hPa | 0 mm | - | - | - |
| 1777847061 | 14.44° C | 55% | 1014.1 hPa | 0 mm | - | - | - |
| 1777845852 | 14.44° C | 55% | 1014.1 hPa | 0 mm | - | - | - |
| 1777844638 | 15° C | 55% | 1013.8 hPa | 0 mm | - | - | - |
| 1777844065 | 15° C | 55% | 1013.7 hPa | 0 mm | - | - | - |
| 1777842235 | 15° C | 56% | 1014 hPa | 0 mm | - | - | - |
| 1777841636 | 13.89° C | 57% | 1014.1 hPa | 0 mm | - | - | - |
| 1777841058 | 15° C | 57% | 1014.2 hPa | 0 mm | - | - | - |
| 1777840438 | 15° C | 56% | 1014.4 hPa | 0 mm | - | - | - |
| 1777837424 | 13.89° C | 57% | 1014.9 hPa | 0 mm | - | - | - |
| 1777836824 | 13.89° C | 56% | 1015 hPa | 0 mm | - | - | - |
| 1777836233 | 14.44° C | 57% | 1015.1 hPa | 0 mm | - | - | - |
| 1777835627 | 13.89° C | 58% | 1015.2 hPa | 0 mm | - | - | - |
| 1777835035 | 14.44° C | 58% | 1015.4 hPa | 0 mm | - | - | - |
| 1777834425 | 13.33° C | 56% | 1015.5 hPa | 0 mm | - | - | - |
| 1777833822 | 13.89° C | 56% | 1015.6 hPa | 0 mm | - | - | - |
| 1777833290 | 13.33° C | 59% | 1015.5 hPa | 0 mm | - | - | - |
| 1777832637 | 13.89° C | 60% | 1015.8 hPa | 0 mm | - | - | - |
| 1777832025 | 14.44° C | 60% | 1015.9 hPa | 0 mm | - | - | - |
* Rain since midnight (hover to see other rain measurements)
** Current wind speed in m/s (hover to see current wind gust speed)